Time,TemperatureF,DewpointF,PressureIn,WindDirection,WindDirectionDegrees,WindSpeedMPH,WindSpeedGustMPH,Humidity,HourlyPrecipIn,Conditions,Clouds,dailyrainin,SoftwareType,DateUTC
2013-10-16 00:04:00,66.6,63.3,29.96,SSE,165,5.0,5.0,89,0.00,,---,0.00,VWS V14.00,2013-10-16 05:04:00,
2013-10-16 00:09:00,66.6,63.6,29.96,SSW,194,5.0,8.0,90,0.00,,---,0.00,VWS V14.00,2013-10-16 05:09:00,
2013-10-16 00:14:00,66.5,63.5,29.96,SSW,211,4.0,8.0,90,0.00,,---,0.00,VWS V14.00,2013-10-16 05:14:00,
2013-10-16 00:19:00,66.3,63.3,29.96,SSW,205,3.0,7.0,90,0.00,,---,0.00,VWS V14.00,2013-10-16 05:19:00,
2013-10-16 00:24:00,66.2,63.2,29.96,South,181,4.0,5.0,90,0.00,,---,0.00,VWS V14.00,2013-10-16 05:24:00,
2013-10-16 00:29:00,66.1,63.4,29.96,SW,221,4.0,5.0,91,0.00,,---,0.00,VWS V14.00,2013-10-16 05:29:00,
2013-10-16 00:34:00,66.0,63.3,29.96,SSW,201,3.0,4.0,91,0.00,,---,0.00,VWS V14.00,2013-10-16 05:34:00,
2013-10-16 00:39:00,65.9,63.2,29.96,South,177,2.0,4.0,91,0.00,,---,0.00,VWS V14.00,2013-10-16 05:39:00,
2013-10-16 00:44:00,65.8,63.1,29.96,SSW,198,2.0,4.0,91,0.00,,---,0.00,VWS V14.00,2013-10-16 05:44:00,
2013-10-16 00:49:00,65.7,63.3,29.95,SE,141,2.0,3.0,92,0.00,,---,0.00,VWS V14.00,2013-10-16 05:49:00,
2013-10-16 00:54:00,65.6,63.2,29.95,SSE,158,3.0,4.0,92,0.00,,---,0.00,VWS V14.00,2013-10-16 05:54:00,
2013-10-16 00:59:00,65.6,63.2,29.96,SSW,193,2.0,4.0,92,0.00,,---,0.00,VWS V14.00,2013-10-16 05:59:00,
2013-10-16 01:04:00,65.5,63.1,29.96,SSW,194,3.0,3.0,92,0.00,,---,0.00,VWS V14.00,2013-10-16 06:04:00,
2013-10-16 01:09:00,65.5,63.1,29.96,SSE,162,1.0,2.0,92,0.00,,---,0.00,VWS V14.00,2013-10-16 06:09:00,
2013-10-16 01:15:00,65.5,63.1,29.96,SSE,157,3.0,5.0,92,0.00,,---,0.00,VWS V14.00,2013-10-16 06:15:00,
2013-10-16 01:20:00,65.5,63.1,29.96,SSE,166,3.0,3.0,92,0.00,,---,0.00,VWS V14.00,2013-10-16 06:20:00,
2013-10-16 01:25:00,65.4,63.3,29.96,SSE,160,3.0,5.0,93,0.00,,---,0.00,VWS V14.00,2013-10-16 06:25:00,
2013-10-16 01:30:00,65.4,63.3,29.95,SSE,165,4.0,4.0,93,0.00,,---,0.00,VWS V14.00,2013-10-16 06:30:00,
2013-10-16 01:35:00,65.3,63.2,29.96,South,176,5.0,5.0,93,0.00,,---,0.00,VWS V14.00,2013-10-16 06:35:00,
2013-10-16 01:40:00,65.3,63.2,29.96,SSE,167,4.0,6.0,93,0.00,,---,0.00,VWS V14.00,2013-10-16 06:40:00,
2013-10-16 01:45:00,65.3,63.2,29.95,South,186,3.0,6.0,93,0.00,,---,0.00,VWS V14.00,2013-10-16 06:45:00,
2013-10-16 01:51:00,65.3,63.2,29.95,SE,141,2.0,7.0,93,0.00,,---,0.00,VWS V14.00,2013-10-16 06:51:00,
2013-10-16 01:56:00,65.3,63.2,29.95,SSE,156,2.0,4.0,93,0.00,,---,0.00,VWS V14.00,2013-10-16 06:56:00,
2013-10-16 02:01:00,65.3,63.2,29.95,South,188,4.0,6.0,93,0.00,,---,0.00,VWS V14.00,2013-10-16 07:01:00,
2013-10-16 02:06:00,65.3,63.2,29.96,SSW,197,3.0,6.0,93,0.00,,---,0.00,VWS V14.00,2013-10-16 07:06:00,
2013-10-16 02:11:00,65.2,63.1,29.95,South,170,8.0,8.0,93,0.00,,---,0.00,VWS V14.00,2013-10-16 07:11:00,
2013-10-16 02:16:00,65.2,63.1,29.95,SSE,167,5.0,6.0,93,0.00,,---,0.00,VWS V14.00,2013-10-16 07:16:00,
2013-10-16 02:21:00,65.2,63.1,29.95,SSE,160,3.0,5.0,93,0.00,,---,0.00,VWS V14.00,2013-10-16 07:21:00,
2013-10-16 02:27:00,65.1,63.0,29.95,South,169,4.0,6.0,93,0.00,,---,0.00,VWS V14.00,2013-10-16 07:27:00,
2013-10-16 02:32:00,65.1,63.3,29.95,South,179,4.0,5.0,94,0.00,,---,0.00,VWS V14.00,2013-10-16 07:32:00,
2013-10-16 02:37:00,65.1,63.3,29.95,South,189,4.0,8.0,94,0.00,,---,0.00,VWS V14.00,2013-10-16 07:37:00,
2013-10-16 02:42:00,65.1,63.3,29.95,SSE,166,3.0,6.0,94,0.00,,---,0.00,VWS V14.00,2013-10-16 07:42:00,
2013-10-16 02:47:00,65.1,63.3,29.95,SE,142,3.0,5.0,94,0.00,,---,0.00,VWS V14.00,2013-10-16 07:47:00,
2013-10-16 02:52:00,65.0,63.2,29.95,SSE,165,3.0,5.0,94,0.00,,---,0.00,VWS V14.00,2013-10-16 07:52:00,
2013-10-16 02:58:00,65.0,63.2,29.95,SSE,159,2.0,4.0,94,0.00,,---,0.00,VWS V14.00,2013-10-16 07:58:00,
2013-10-16 03:03:00,65.0,63.2,29.95,South,183,3.0,5.0,94,0.00,,---,0.00,VWS V14.00,2013-10-16 08:03:00,
2013-10-16 03:08:00,64.9,63.1,29.95,SW,226,2.0,6.0,94,0.00,,---,0.00,VWS V14.00,2013-10-16 08:08:00,
2013-10-16 03:13:00,64.9,63.1,29.95,SW,221,1.0,2.0,94,0.00,,---,0.00,VWS V14.00,2013-10-16 08:13:00,
2013-10-16 03:18:00,64.9,63.1,29.95,SW,222,2.0,4.0,94,0.00,,---,0.00,VWS V14.00,2013-10-16 08:18:00,
2013-10-16 03:23:00,64.8,63.3,29.95,SW,225,2.0,3.0,95,0.00,,---,0.00,VWS V14.00,2013-10-16 08:23:00,
2013-10-16 03:28:00,64.8,63.3,29.95,South,171,2.0,3.0,95,0.00,,---,0.00,VWS V14.00,2013-10-16 08:28:00,
2013-10-16 03:33:00,64.9,63.4,29.95,WSW,239,2.0,5.0,95,0.00,,---,0.00,VWS V14.00,2013-10-16 08:33:00,
2013-10-16 03:39:00,64.8,63.3,29.95,WSW,238,2.0,3.0,95,0.00,,---,0.00,VWS V14.00,2013-10-16 08:39:00,
2013-10-16 03:44:00,64.8,63.3,29.95,SW,226,2.0,4.0,95,0.00,,---,0.00,VWS V14.00,2013-10-16 08:44:00,
2013-10-16 03:49:00,64.8,63.3,29.95,South,189,2.0,4.0,95,0.00,,---,0.00,VWS V14.00,2013-10-16 08:49:00,
2013-10-16 03:54:00,64.8,63.3,29.95,WSW,245,3.0,4.0,95,0.00,,---,0.00,VWS V14.00,2013-10-16 08:54:00,
2013-10-16 03:59:00,64.8,63.3,29.95,SW,226,2.0,4.0,95,0.00,,---,0.00,VWS V14.00,2013-10-16 08:59:00,
2013-10-16 04:04:00,64.8,63.3,29.95,SSW,194,2.0,4.0,95,0.00,,---,0.00,VWS V14.00,2013-10-16 09:04:00,
2013-10-16 04:09:00,64.8,63.3,29.95,SSW,195,1.0,2.0,95,0.00,,---,0.00,VWS V14.00,2013-10-16 09:09:00,
2013-10-16 04:14:00,64.8,63.3,29.95,SSW,195,4.0,4.0,95,0.00,,---,0.00,VWS V14.00,2013-10-16 09:14:00,
2013-10-16 04:20:00,64.9,63.4,29.95,SSW,195,3.0,4.0,95,0.00,,---,0.00,VWS V14.00,2013-10-16 09:20:00,
2013-10-16 04:25:00,64.9,63.4,29.95,SSE,166,2.0,3.0,95,0.00,,---,0.00,VWS V14.00,2013-10-16 09:25:00,
2013-10-16 04:30:00,64.9,63.4,29.95,SSW,201,2.0,4.0,95,0.00,,---,0.00,VWS V14.00,2013-10-16 09:30:00,
2013-10-16 04:35:00,64.9,63.4,29.94,SSE,147,1.0,2.0,95,0.00,,---,0.00,VWS V14.00,2013-10-16 09:35:00,
2013-10-16 04:40:00,64.9,63.4,29.94,SSE,150,1.0,2.0,95,0.00,,---,0.00,VWS V14.00,2013-10-16 09:40:00,
2013-10-16 04:45:00,64.9,63.4,29.94,SE,129,3.0,4.0,95,0.00,,---,0.00,VWS V14.00,2013-10-16 09:45:00,
2013-10-16 04:50:00,64.7,63.2,29.94,South,186,2.0,2.0,95,0.00,,---,0.00,VWS V14.00,2013-10-16 09:50:00,
2013-10-16 04:56:00,64.7,63.2,29.94,SSW,195,2.0,3.0,95,0.00,,---,0.00,VWS V14.00,2013-10-16 09:56:00,
2013-10-16 05:01:00,64.7,63.2,29.94,SSE,158,1.0,3.0,95,0.00,,---,0.00,VWS V14.00,2013-10-16 10:01:00,
2013-10-16 05:06:00,64.7,63.5,29.94,SSE,163,1.0,1.0,96,0.00,,---,0.00,VWS V14.00,2013-10-16 10:06:00,
2013-10-16 05:11:00,64.7,63.5,29.94,South,169,2.0,3.0,96,0.00,,---,0.00,VWS V14.00,2013-10-16 10:11:00,
2013-10-16 05:16:00,64.7,63.5,29.94,SSE,162,1.0,2.0,96,0.00,,---,0.00,VWS V14.00,2013-10-16 10:16:00,
2013-10-16 05:21:00,64.7,63.5,29.94,SSW,203,2.0,2.0,96,0.00,,---,0.00,VWS V14.00,2013-10-16 10:21:00,
2013-10-16 05:26:00,64.7,63.5,29.95,SSW,208,2.0,3.0,96,0.00,,---,0.00,VWS V14.00,2013-10-16 10:26:00,
2013-10-16 05:32:00,64.8,63.6,29.95,SSW,205,1.0,2.0,96,0.00,,---,0.00,VWS V14.00,2013-10-16 10:32:00,
2013-10-16 05:37:00,64.8,63.6,29.95,SW,214,5.0,5.0,96,0.00,,---,0.00,VWS V14.00,2013-10-16 10:37:00,
2013-10-16 05:42:00,64.8,63.6,29.95,SSE,156,1.0,3.0,96,0.00,,---,0.00,VWS V14.00,2013-10-16 10:42:00,
2013-10-16 05:47:00,64.9,63.7,29.95,South,190,2.0,5.0,96,0.00,,---,0.00,VWS V14.00,2013-10-16 10:47:00,
2013-10-16 05:52:00,64.9,63.7,29.95,SSE,165,2.0,5.0,96,0.00,,---,0.00,VWS V14.00,2013-10-16 10:52:00,
2013-10-16 05:57:00,65.0,63.8,29.95,SW,214,4.0,6.0,96,0.00,,---,0.00,VWS V14.00,2013-10-16 10:57:00,
2013-10-16 06:02:00,65.0,63.8,29.95,SW,235,3.0,4.0,96,0.00,,---,0.00,VWS V14.00,2013-10-16 11:02:00,
2013-10-16 06:07:00,65.0,63.8,29.96,SW,228,4.0,4.0,96,0.00,,---,0.00,VWS V14.00,2013-10-16 11:07:00,
2013-10-16 06:13:00,65.0,63.8,29.96,SSW,210,3.0,4.0,96,0.00,,---,0.00,VWS V14.00,2013-10-16 11:13:00,
2013-10-16 06:18:00,65.0,63.8,29.96,NW,322,3.0,4.0,96,0.00,,---,0.00,VWS V14.00,2013-10-16 11:18:00,
2013-10-16 06:23:00,63.5,60.8,29.97,North,353,4.0,12.0,91,0.00,,---,0.00,VWS V14.00,2013-10-16 11:23:00,
2013-10-16 06:28:00,62.1,59.8,29.97,NNW,327,1.0,9.0,92,0.00,,---,0.00,VWS V14.00,2013-10-16 11:28:00,
2013-10-16 06:33:00,61.4,59.4,29.97,WNW,282,2.0,7.0,93,0.00,,---,0.00,VWS V14.00,2013-10-16 11:33:00,
2013-10-16 06:38:00,61.1,59.1,29.98,WNW,302,2.0,4.0,93,0.00,,---,0.00,VWS V14.00,2013-10-16 11:38:00,
2013-10-16 06:43:00,60.7,58.7,29.97,NW,306,4.0,8.0,93,0.00,,---,0.00,VWS V14.00,2013-10-16 11:43:00,
2013-10-16 06:49:00,60.3,58.3,29.97,NNW,327,1.0,6.0,93,0.00,,---,0.00,VWS V14.00,2013-10-16 11:49:00,
2013-10-16 06:54:00,60.1,58.4,29.97,NNW,346,4.0,6.0,94,0.00,,---,0.00,VWS V14.00,2013-10-16 11:54:00,
2013-10-16 06:59:00,59.9,57.9,29.97,WSW,255,3.0,7.0,93,0.00,,---,0.00,VWS V14.00,2013-10-16 11:59:00,
2013-10-16 07:04:00,59.6,57.6,29.97,NW,305,1.0,4.0,93,0.00,,---,0.00,VWS V14.00,2013-10-16 12:04:00,
2013-10-16 07:09:00,59.4,57.4,29.97,NW,325,1.0,6.0,93,0.00,,---,0.00,VWS V14.00,2013-10-16 12:09:00,
2013-10-16 07:14:00,59.2,57.2,29.97,NNW,332,1.0,3.0,93,0.00,,---,0.00,VWS V14.00,2013-10-16 12:14:00,
2013-10-16 07:19:00,59.1,57.1,29.97,North,356,5.0,7.0,93,0.00,,---,0.00,VWS V14.00,2013-10-16 12:19:00,
2013-10-16 07:24:00,59.0,57.0,29.97,North,353,3.0,5.0,93,0.00,,---,0.00,VWS V14.00,2013-10-16 12:24:00,
2013-10-16 07:29:00,58.9,56.9,29.98,NNW,336,2.0,5.0,93,0.00,,---,0.00,VWS V14.00,2013-10-16 12:29:00,
2013-10-16 07:34:00,58.8,57.1,29.99,WNW,300,2.0,3.0,94,0.00,,---,0.00,VWS V14.00,2013-10-16 12:34:00,
2013-10-16 07:39:00,58.7,56.7,29.99,NNE,25,2.0,4.0,93,0.00,,---,0.00,VWS V14.00,2013-10-16 12:39:00,
2013-10-16 07:44:00,58.5,56.5,29.99,NW,321,5.0,10.0,93,0.00,,---,0.00,VWS V14.00,2013-10-16 12:44:00,
2013-10-16 07:49:00,58.4,56.4,29.99,NNW,329,4.0,4.0,93,0.00,,---,0.00,VWS V14.00,2013-10-16 12:49:00,
2013-10-16 07:54:00,58.3,56.3,29.99,NW,321,2.0,3.0,93,0.00,,---,0.00,VWS V14.00,2013-10-16 12:54:00,
2013-10-16 07:59:00,58.2,56.2,30.00,West,280,2.0,2.0,93,0.00,,---,0.00,VWS V14.00,2013-10-16 12:59:00,
2013-10-16 08:04:00,58.2,56.2,30.00,NW,309,1.0,2.0,93,0.00,,---,0.00,VWS V14.00,2013-10-16 13:04:00,
2013-10-16 08:10:00,58.1,56.1,30.00,West,270,2.0,4.0,93,0.00,,---,0.00,VWS V14.00,2013-10-16 13:10:00,
2013-10-16 08:15:00,58.0,55.7,30.00,NNE,30,2.0,4.0,92,0.00,,---,0.00,VWS V14.00,2013-10-16 13:15:00,
2013-10-16 08:20:00,57.9,55.6,30.00,West,261,3.0,3.0,92,0.00,,---,0.00,VWS V14.00,2013-10-16 13:20:00,
2013-10-16 08:25:00,57.7,55.4,30.01,WNW,301,4.0,7.0,92,0.00,,---,0.00,VWS V14.00,2013-10-16 13:25:00,
2013-10-16 08:30:00,57.5,54.9,30.01,WNW,283,0.0,6.0,91,0.00,,---,0.00,VWS V14.00,2013-10-16 13:30:00,
2013-10-16 08:35:00,57.4,54.5,30.00,NNW,334,3.0,7.0,90,0.00,,---,0.00,VWS V14.00,2013-10-16 13:35:00,
2013-10-16 08:40:00,57.2,54.6,30.00,NNW,338,1.0,3.0,91,0.00,,---,0.00,VWS V14.00,2013-10-16 13:40:00,
2013-10-16 08:45:00,57.2,54.6,30.00,West,280,0.0,2.0,91,0.00,,---,0.00,VWS V14.00,2013-10-16 13:45:00,
2013-10-16 08:50:00,57.1,54.5,30.01,WNW,295,3.0,3.0,91,0.00,,---,0.00,VWS V14.00,2013-10-16 13:50:00,
2013-10-16 08:55:00,57.0,54.4,30.01,WSW,255,3.0,3.0,91,0.00,,---,0.00,VWS V14.00,2013-10-16 13:55:00,
2013-10-16 09:00:00,57.0,54.4,30.02,WSW,254,2.0,4.0,91,0.00,,---,0.00,VWS V14.00,2013-10-16 14:00:00,
2013-10-16 09:06:00,56.9,54.3,30.02,NNW,329,1.0,4.0,91,0.00,,---,0.00,VWS V14.00,2013-10-16 14:06:00,
2013-10-16 09:11:00,56.8,54.2,30.02,West,277,3.0,4.0,91,0.00,,---,0.00,VWS V14.00,2013-10-16 14:11:00,
2013-10-16 09:16:00,56.7,54.1,30.02,West,276,2.0,3.0,91,0.00,,---,0.00,VWS V14.00,2013-10-16 14:16:00,
2013-10-16 09:21:00,56.6,54.0,30.02,NW,318,2.0,8.0,91,0.00,,---,0.00,VWS V14.00,2013-10-16 14:21:00,
2013-10-16 09:26:00,56.3,53.7,30.02,North,354,3.0,5.0,91,0.00,,---,0.00,VWS V14.00,2013-10-16 14:26:00,
2013-10-16 09:31:00,56.1,53.8,30.02,WNW,290,4.0,5.0,92,0.00,,---,0.00,VWS V14.00,2013-10-16 14:31:00,
2013-10-16 09:36:00,56.1,53.8,30.02,North,8,3.0,4.0,92,0.00,,---,0.00,VWS V14.00,2013-10-16 14:36:00,
2013-10-16 09:41:00,56.0,53.7,30.01,NNW,345,4.0,5.0,92,0.00,,---,0.00,VWS V14.00,2013-10-16 14:41:00,
2013-10-16 09:47:00,56.0,53.7,30.01,NNW,330,2.0,7.0,92,0.00,,---,0.00,VWS V14.00,2013-10-16 14:47:00,
2013-10-16 09:52:00,56.1,53.8,30.01,NW,319,3.0,6.0,92,0.00,,---,0.00,VWS V14.00,2013-10-16 14:52:00,
2013-10-16 09:57:00,56.1,53.8,30.01,North,360,6.0,7.0,92,0.00,,---,0.00,VWS V14.00,2013-10-16 14:57:00,
2013-10-16 10:02:00,56.3,54.3,30.01,NNE,16,4.0,5.0,93,0.00,,---,0.00,VWS V14.00,2013-10-16 15:02:00,
2013-10-16 10:07:00,56.2,53.6,30.01,NW,322,4.0,8.0,91,0.00,,---,0.00,VWS V14.00,2013-10-16 15:07:00,
2013-10-16 10:12:00,56.2,53.6,30.01,NW,315,1.0,5.0,91,0.00,,---,0.00,VWS V14.00,2013-10-16 15:12:00,
2013-10-16 10:17:00,56.3,53.7,30.01,NW,315,1.0,7.0,91,0.00,,---,0.00,VWS V14.00,2013-10-16 15:17:00,
2013-10-16 10:22:00,56.5,54.2,30.01,West,267,3.0,6.0,92,0.00,,---,0.00,VWS V14.00,2013-10-16 15:22:00,
2013-10-16 10:28:00,56.7,54.1,30.01,NNE,20,2.0,7.0,91,0.00,,---,0.00,VWS V14.00,2013-10-16 15:28:00,
2013-10-16 10:33:00,56.7,54.1,30.01,NW,312,3.0,6.0,91,0.00,,---,0.00,VWS V14.00,2013-10-16 15:33:00,
2013-10-16 10:38:00,56.8,54.2,30.01,NNW,328,3.0,6.0,91,0.00,,---,0.00,VWS V14.00,2013-10-16 15:38:00,
2013-10-16 10:43:00,56.9,54.6,30.02,North,354,2.0,3.0,92,0.00,,---,0.00,VWS V14.00,2013-10-16 15:43:00,
2013-10-16 10:48:00,56.8,54.2,30.02,NNW,338,2.0,4.0,91,0.00,,---,0.00,VWS V14.00,2013-10-16 15:48:00,
2013-10-16 10:53:00,56.8,54.2,30.01,North,349,2.0,4.0,91,0.00,,---,0.00,VWS V14.00,2013-10-16 15:53:00,
2013-10-16 10:58:00,56.8,54.2,30.01,NNW,342,3.0,4.0,91,0.00,,---,0.00,VWS V14.00,2013-10-16 15:58:00,
2013-10-16 11:04:00,56.9,54.3,30.01,NNW,334,3.0,5.0,91,0.00,,---,0.00,VWS V14.00,2013-10-16 16:04:00,
2013-10-16 11:09:00,57.1,54.5,30.02,NNW,335,0.0,4.0,91,0.00,,---,0.00,VWS V14.00,2013-10-16 16:09:00,
2013-10-16 11:14:00,57.1,54.2,30.02,NNW,334,1.0,2.0,90,0.00,,---,0.00,VWS V14.00,2013-10-16 16:14:00,
2013-10-16 11:19:00,57.1,53.9,30.02,NNW,333,1.0,3.0,89,0.00,,---,0.00,VWS V14.00,2013-10-16 16:19:00,
2013-10-16 11:24:00,56.9,53.7,30.02,NW,309,1.0,3.0,89,0.00,,---,0.00,VWS V14.00,2013-10-16 16:24:00,
2013-10-16 11:29:00,56.8,53.3,30.02,NNW,343,2.0,3.0,88,0.00,,---,0.00,VWS V14.00,2013-10-16 16:29:00,
2013-10-16 11:34:00,56.8,53.3,30.01,NNW,345,2.0,3.0,88,0.00,,---,0.00,VWS V14.00,2013-10-16 16:34:00,
2013-10-16 11:39:00,56.9,53.7,30.01,NW,317,3.0,4.0,89,0.00,,---,0.00,VWS V14.00,2013-10-16 16:39:00,
2013-10-16 11:44:00,57.1,53.9,30.02,West,270,0.0,3.0,89,0.00,,---,0.00,VWS V14.00,2013-10-16 16:44:00,
2013-10-16 11:49:00,57.3,54.4,30.02,North,11,2.0,2.0,90,0.00,,---,0.00,VWS V14.00,2013-10-16 16:49:00,
2013-10-16 11:54:00,57.2,54.0,30.01,NNW,334,1.0,1.0,89,0.00,,---,0.00,VWS V14.00,2013-10-16 16:54:00,
2013-10-16 11:59:00,57.2,54.0,30.01,NW,321,0.0,0.0,89,0.00,,---,0.00,VWS V14.00,2013-10-16 16:59:00,
2013-10-16 12:05:00,57.3,54.1,30.01,NW,321,1.0,2.0,89,0.00,,---,0.00,VWS V14.00,2013-10-16 17:05:00,
2013-10-16 12:10:00,57.2,54.0,30.01,NW,316,1.0,3.0,89,0.00,,---,0.00,VWS V14.00,2013-10-16 17:10:00,
2013-10-16 12:15:00,57.2,54.0,30.01,NNW,336,1.0,2.0,89,0.00,,---,0.00,VWS V14.00,2013-10-16 17:15:00,
2013-10-16 12:20:00,57.2,53.7,30.00,NW,321,1.0,2.0,88,0.00,,---,0.00,VWS V14.00,2013-10-16 17:20:00,
2013-10-16 12:25:00,57.2,53.7,30.00,North,354,1.0,1.0,88,0.00,,---,0.00,VWS V14.00,2013-10-16 17:25:00,
2013-10-16 12:30:00,57.3,53.8,30.00,NW,319,1.0,2.0,88,0.00,,---,0.00,VWS V14.00,2013-10-16 17:30:00,
2013-10-16 12:35:00,57.4,53.9,30.00,WNW,285,1.0,1.0,88,0.00,,---,0.00,VWS V14.00,2013-10-16 17:35:00,
2013-10-16 12:40:00,57.5,54.3,30.00,NNW,333,1.0,2.0,89,0.00,,---,0.00,VWS V14.00,2013-10-16 17:40:00,
2013-10-16 12:45:00,57.6,54.7,30.00,North,353,1.0,1.0,90,0.00,,---,0.00,VWS V14.00,2013-10-16 17:45:00,
2013-10-16 12:50:00,57.7,54.8,30.00,NNW,332,1.0,2.0,90,0.00,,---,0.00,VWS V14.00,2013-10-16 17:50:00,
2013-10-16 12:55:00,57.8,54.6,29.99,NNE,32,3.0,4.0,89,0.00,,---,0.00,VWS V14.00,2013-10-16 17:55:00,
2013-10-16 13:00:00,57.8,54.9,29.99,NW,325,2.0,3.0,90,0.00,,---,0.00,VWS V14.00,2013-10-16 18:00:00,
2013-10-16 13:05:00,57.9,54.7,29.99,NW,325,4.0,4.0,89,0.00,,---,0.00,VWS V14.00,2013-10-16 18:05:00,
2013-10-16 13:11:00,57.9,54.7,29.99,WNW,302,0.0,3.0,89,0.00,,---,0.00,VWS V14.00,2013-10-16 18:11:00,
2013-10-16 13:16:00,57.9,55.0,29.98,West,270,2.0,3.0,90,0.00,,---,0.00,VWS V14.00,2013-10-16 18:16:00,
2013-10-16 13:21:00,58.2,55.3,29.98,WNW,286,2.0,3.0,90,0.00,,---,0.00,VWS V14.00,2013-10-16 18:21:00,
2013-10-16 13:26:00,58.1,55.2,29.99,North,357,3.0,4.0,90,0.00,,---,0.00,VWS V14.00,2013-10-16 18:26:00,
2013-10-16 13:31:00,58.1,54.9,29.99,WNW,300,3.0,5.0,89,0.00,,---,0.00,VWS V14.00,2013-10-16 18:31:00,
2013-10-16 13:32:00,58.1,54.9,29.99,West,264,3.0,5.0,89,0.00,,---,0.00,VWS V14.00,2013-10-16 18:32:00,
2013-10-16 13:38:00,58.1,54.9,29.98,NW,305,2.0,3.0,89,0.00,,---,0.00,VWS V14.00,2013-10-16 18:38:00,
2013-10-16 13:43:00,58.3,55.4,29.97,NNW,342,3.0,3.0,90,0.00,,---,0.00,VWS V14.00,2013-10-16 18:43:00,
2013-10-16 13:48:00,58.3,55.1,29.98,NW,312,2.0,3.0,89,0.00,,---,0.00,VWS V14.00,2013-10-16 18:48:00,
2013-10-16 13:53:00,58.3,55.1,29.98,North,360,0.0,3.0,89,0.00,,---,0.00,VWS V14.00,2013-10-16 18:53:00,
2013-10-16 13:58:00,58.3,55.1,29.98,NW,314,1.0,4.0,89,0.00,,---,0.00,VWS V14.00,2013-10-16 18:58:00,
2013-10-16 14:03:00,58.3,55.1,29.98,WNW,297,0.0,2.0,89,0.00,,---,0.00,VWS V14.00,2013-10-16 19:03:00,
2013-10-16 14:08:00,58.6,55.4,29.97,NNE,25,3.0,3.0,89,0.00,,---,0.00,VWS V14.00,2013-10-16 19:08:00,
2013-10-16 14:13:00,58.6,55.4,29.97,NNE,20,3.0,3.0,89,0.00,,---,0.00,VWS V14.00,2013-10-16 19:13:00,
2013-10-16 14:18:00,58.5,55.0,29.97,WNW,295,3.0,5.0,88,0.00,,---,0.00,VWS V14.00,2013-10-16 19:18:00,
2013-10-16 14:23:00,58.5,54.7,29.97,NW,326,3.0,5.0,87,0.00,,---,0.00,VWS V14.00,2013-10-16 19:23:00,
2013-10-16 14:29:00,58.5,54.3,29.97,NW,312,3.0,6.0,86,0.00,,---,0.00,VWS V14.00,2013-10-16 19:29:00,
2013-10-16 14:34:00,58.6,54.4,29.98,NNW,328,2.0,3.0,86,0.00,,---,0.00,VWS V14.00,2013-10-16 19:34:00,
2013-10-16 14:39:00,58.5,54.3,29.98,West,278,1.0,4.0,86,0.00,,---,0.00,VWS V14.00,2013-10-16 19:39:00,
2013-10-16 14:44:00,58.5,54.3,29.98,NW,325,1.0,3.0,86,0.00,,---,0.00,VWS V14.00,2013-10-16 19:44:00,
2013-10-16 14:49:00,58.5,54.3,29.97,North,354,2.0,5.0,86,0.00,,---,0.00,VWS V14.00,2013-10-16 19:49:00,
2013-10-16 14:54:00,58.6,55.1,29.98,NW,308,0.0,3.0,88,0.00,,---,0.00,VWS V14.00,2013-10-16 19:54:00,
2013-10-16 14:59:00,58.7,55.2,29.98,NNE,14,3.0,3.0,88,0.00,,---,0.00,VWS V14.00,2013-10-16 19:59:00,
2013-10-16 15:04:00,58.8,55.6,29.98,North,349,5.0,6.0,89,0.00,,---,0.00,VWS V14.00,2013-10-16 20:04:00,
2013-10-16 15:09:00,58.7,55.5,29.98,NW,325,1.0,5.0,89,0.00,,---,0.00,VWS V14.00,2013-10-16 20:09:00,
2013-10-16 15:14:00,58.7,55.5,29.98,NNE,23,0.0,5.0,89,0.00,,---,0.00,VWS V14.00,2013-10-16 20:14:00,
2013-10-16 15:19:00,58.8,55.3,29.98,NNE,18,2.0,2.0,88,0.00,,---,0.00,VWS V14.00,2013-10-16 20:19:00,
2013-10-16 15:24:00,59.0,55.8,29.98,NW,312,2.0,3.0,89,0.00,,---,0.00,VWS V14.00,2013-10-16 20:24:00,
2013-10-16 15:29:00,59.0,55.5,29.98,NW,321,2.0,5.0,88,0.00,,---,0.00,VWS V14.00,2013-10-16 20:29:00,
2013-10-16 15:34:00,58.9,55.4,29.98,WNW,302,1.0,4.0,88,0.00,,---,0.00,VWS V14.00,2013-10-16 20:34:00,
2013-10-16 15:39:00,58.8,55.3,29.97,NW,311,0.0,1.0,88,0.00,,---,0.00,VWS V14.00,2013-10-16 20:39:00,
2013-10-16 15:44:00,58.8,55.6,29.97,NW,316,0.0,0.0,89,0.00,,---,0.00,VWS V14.00,2013-10-16 20:44:00,
2013-10-16 15:49:00,58.8,55.6,29.97,NW,318,1.0,1.0,89,0.00,,---,0.00,VWS V14.00,2013-10-16 20:49:00,
2013-10-16 15:55:00,58.9,55.7,29.97,NNE,19,2.0,2.0,89,0.00,,---,0.00,VWS V14.00,2013-10-16 20:55:00,
2013-10-16 16:00:00,59.0,55.8,29.97,North,5,3.0,4.0,89,0.00,,---,0.00,VWS V14.00,2013-10-16 21:00:00,
2013-10-16 16:05:00,59.0,55.8,29.97,NW,314,1.0,3.0,89,0.00,,---,0.00,VWS V14.00,2013-10-16 21:05:00,
2013-10-16 16:10:00,58.9,55.7,29.97,NNW,338,3.0,3.0,89,0.00,,---,0.00,VWS V14.00,2013-10-16 21:10:00,
2013-10-16 16:15:00,58.9,55.7,29.97,NW,319,3.0,4.0,89,0.00,,---,0.00,VWS V14.00,2013-10-16 21:15:00,
2013-10-16 16:20:00,58.9,55.7,29.97,NW,326,2.0,3.0,89,0.00,,---,0.00,VWS V14.00,2013-10-16 21:20:00,
2013-10-16 16:25:00,58.9,55.7,29.97,NW,321,1.0,2.0,89,0.00,,---,0.00,VWS V14.00,2013-10-16 21:25:00,
2013-10-16 16:30:00,58.9,55.7,29.97,WNW,298,0.0,2.0,89,0.00,,---,0.00,VWS V14.00,2013-10-16 21:30:00,
2013-10-16 16:35:00,59.0,55.8,29.97,NW,316,2.0,3.0,89,0.00,,---,0.00,VWS V14.00,2013-10-16 21:35:00,
2013-10-16 16:41:00,58.8,55.6,29.97,West,267,2.0,3.0,89,0.00,,---,0.00,VWS V14.00,2013-10-16 21:41:00,
2013-10-16 16:46:00,58.7,55.5,29.97,NW,323,2.0,3.0,89,0.00,,---,0.00,VWS V14.00,2013-10-16 21:46:00,
2013-10-16 16:51:00,58.7,55.8,29.96,NNW,342,1.0,1.0,90,0.00,,---,0.00,VWS V14.00,2013-10-16 21:51:00,
2013-10-16 16:56:00,58.5,55.6,29.96,NNE,23,3.0,4.0,90,0.00,,---,0.00,VWS V14.00,2013-10-16 21:56:00,
2013-10-16 17:01:00,58.4,55.5,29.97,North,351,3.0,3.0,90,0.00,,---,0.00,VWS V14.00,2013-10-16 22:01:00,
2013-10-16 17:06:00,58.3,55.1,29.97,NW,325,0.0,1.0,89,0.00,,---,0.00,VWS V14.00,2013-10-16 22:06:00,
2013-10-16 17:11:00,58.3,55.4,29.97,NW,325,0.0,0.0,90,0.00,,---,0.00,VWS V14.00,2013-10-16 22:11:00,
2013-10-16 17:16:00,58.3,55.4,29.97,NW,325,2.0,2.0,90,0.00,,---,0.00,VWS V14.00,2013-10-16 22:16:00,
2013-10-16 17:21:00,58.2,55.6,29.97,North,1,2.0,2.0,91,0.00,,---,0.00,VWS V14.00,2013-10-16 22:21:00,
2013-10-16 17:26:00,58.1,55.2,29.97,North,349,2.0,4.0,90,0.00,,---,0.00,VWS V14.00,2013-10-16 22:26:00,
2013-10-16 17:32:00,58.2,55.6,29.97,NW,321,2.0,2.0,91,0.00,,---,0.00,VWS V14.00,2013-10-16 22:32:00,
2013-10-16 17:37:00,58.0,54.8,29.97,WNW,302,2.0,3.0,89,0.00,,---,0.00,VWS V14.00,2013-10-16 22:37:00,
2013-10-16 17:42:00,57.6,54.4,29.97,NNW,340,2.0,3.0,89,0.00,,---,0.00,VWS V14.00,2013-10-16 22:42:00,
2013-10-16 17:47:00,57.5,54.3,29.97,NNW,327,0.0,1.0,89,0.00,,---,0.00,VWS V14.00,2013-10-16 22:47:00,
2013-10-16 17:52:00,57.6,54.1,29.97,NW,326,0.0,1.0,88,0.00,,---,0.00,VWS V14.00,2013-10-16 22:52:00,
2013-10-16 17:57:00,57.8,53.7,29.97,NW,304,0.0,2.0,86,0.00,,---,0.00,VWS V14.00,2013-10-16 22:57:00,
2013-10-16 18:02:00,57.7,53.9,29.97,North,357,1.0,3.0,87,0.00,,---,0.00,VWS V14.00,2013-10-16 23:02:00,
2013-10-16 18:07:00,57.5,53.7,29.97,North,360,1.0,2.0,87,0.00,,---,0.00,VWS V14.00,2013-10-16 23:07:00,
2013-10-16 18:12:00,57.4,53.6,29.97,North,360,0.0,1.0,87,0.00,,---,0.00,VWS V14.00,2013-10-16 23:12:00,
2013-10-16 18:17:00,57.2,53.4,29.97,NNW,346,0.0,2.0,87,0.00,,---,0.00,VWS V14.00,2013-10-16 23:17:00,
2013-10-16 18:23:00,57.2,53.7,29.97,NNW,345,0.0,1.0,88,0.00,,---,0.00,VWS V14.00,2013-10-16 23:23:00,
2013-10-16 18:28:00,57.1,53.6,29.97,NNW,343,1.0,1.0,88,0.00,,---,0.00,VWS V14.00,2013-10-16 23:28:00,
2013-10-16 18:33:00,57.0,53.5,29.97,NNW,343,0.0,1.0,88,0.00,,---,0.00,VWS V14.00,2013-10-16 23:33:00,
2013-10-16 18:38:00,56.9,53.4,29.97,NNW,343,1.0,1.0,88,0.00,,---,0.00,VWS V14.00,2013-10-16 23:38:00,
2013-10-16 18:43:00,56.8,53.3,29.97,NNW,343,0.0,1.0,88,0.00,,---,0.00,VWS V14.00,2013-10-16 23:43:00,
2013-10-16 18:48:00,56.6,53.4,29.97,NNW,342,0.0,1.0,89,0.00,,---,0.00,VWS V14.00,2013-10-16 23:48:00,
2013-10-16 18:53:00,56.2,53.0,29.97,NNW,342,0.0,1.0,89,0.00,,---,0.00,VWS V14.00,2013-10-16 23:53:00,
2013-10-16 18:58:00,55.8,52.9,29.97,NNW,341,0.0,0.0,90,0.00,,---,0.00,VWS V14.00,2013-10-16 23:58:00,
2013-10-16 19:03:00,55.4,52.8,29.97,NNW,343,0.0,1.0,91,0.00,,---,0.00,VWS V14.00,2013-10-17 00:03:00,
2013-10-16 19:09:00,55.0,52.4,29.97,NNW,342,0.0,0.0,91,0.00,,---,0.00,VWS V14.00,2013-10-17 00:09:00,
2013-10-16 19:14:00,54.7,52.4,29.98,NNW,342,0.0,0.0,92,0.00,,---,0.00,VWS V14.00,2013-10-17 00:14:00,
2013-10-16 19:19:00,54.5,52.5,29.98,NNW,343,0.0,1.0,93,0.00,,---,0.00,VWS V14.00,2013-10-17 00:19:00,
2013-10-16 19:24:00,54.3,52.3,29.98,NNW,343,0.0,0.0,93,0.00,,---,0.00,VWS V14.00,2013-10-17 00:24:00,
2013-10-16 19:29:00,54.2,52.5,29.98,NNW,342,0.0,1.0,94,0.00,,---,0.00,VWS V14.00,2013-10-17 00:29:00,
2013-10-16 19:34:00,54.1,52.4,29.98,NNW,343,0.0,0.0,94,0.00,,---,0.00,VWS V14.00,2013-10-17 00:34:00,
2013-10-16 19:39:00,53.8,52.1,29.98,NNW,343,0.0,0.0,94,0.00,,---,0.00,VWS V14.00,2013-10-17 00:39:00,
2013-10-16 19:44:00,53.6,51.9,29.98,NNW,342,0.0,0.0,94,0.00,,---,0.00,VWS V14.00,2013-10-17 00:44:00,
2013-10-16 19:49:00,53.4,51.7,29.98,NNW,342,0.0,0.0,94,0.00,,---,0.00,VWS V14.00,2013-10-17 00:49:00,
2013-10-16 19:54:00,53.3,51.9,29.98,NNW,343,0.0,0.0,95,0.00,,---,0.00,VWS V14.00,2013-10-17 00:54:00,
2013-10-16 20:00:00,53.0,51.3,29.98,NNW,342,0.0,0.0,94,0.00,,---,0.00,VWS V14.00,2013-10-17 01:00:00,
2013-10-16 20:05:00,52.8,51.4,29.98,NNW,343,0.0,0.0,95,0.00,,---,0.00,VWS V14.00,2013-10-17 01:05:00,
2013-10-16 20:10:00,53.0,51.6,29.98,NNW,342,0.0,0.0,95,0.00,,---,0.00,VWS V14.00,2013-10-17 01:10:00,
2013-10-16 20:15:00,53.0,51.6,29.98,NNW,342,0.0,0.0,95,0.00,,---,0.00,VWS V14.00,2013-10-17 01:15:00,
2013-10-16 20:20:00,53.0,51.9,29.98,NNW,342,0.0,0.0,96,0.00,,---,0.00,VWS V14.00,2013-10-17 01:20:00,
2013-10-16 20:25:00,53.0,51.9,29.98,NNW,343,0.0,0.0,96,0.00,,---,0.00,VWS V14.00,2013-10-17 01:25:00,
2013-10-16 20:30:00,53.1,52.0,29.99,NNW,343,0.0,0.0,96,0.00,,---,0.00,VWS V14.00,2013-10-17 01:30:00,
2013-10-16 20:35:00,53.2,52.1,29.99,NNW,343,0.0,0.0,96,0.00,,---,0.00,VWS V14.00,2013-10-17 01:35:00,
2013-10-16 20:40:00,53.2,52.1,29.99,NNW,342,0.0,0.0,96,0.00,,---,0.00,VWS V14.00,2013-10-17 01:40:00,
2013-10-16 20:46:00,53.3,52.2,29.99,NNW,343,0.0,0.0,96,0.00,,---,0.00,VWS V14.00,2013-10-17 01:46:00,
2013-10-16 20:51:00,53.2,52.1,29.99,NNW,343,0.0,1.0,96,0.00,,---,0.00,VWS V14.00,2013-10-17 01:51:00,
2013-10-16 20:56:00,53.3,52.2,29.99,NNW,342,0.0,1.0,96,0.00,,---,0.00,VWS V14.00,2013-10-17 01:56:00,
2013-10-16 21:01:00,53.3,52.2,29.99,NNW,342,0.0,0.0,96,0.00,,---,0.00,VWS V14.00,2013-10-17 02:01:00,
2013-10-16 21:06:00,53.2,52.1,29.99,NNW,342,1.0,1.0,96,0.00,,---,0.00,VWS V14.00,2013-10-17 02:06:00,
2013-10-16 21:11:00,53.2,52.1,29.99,NNW,343,0.0,0.0,96,0.00,,---,0.00,VWS V14.00,2013-10-17 02:11:00,
2013-10-16 21:16:00,53.0,51.9,29.99,NNW,343,0.0,0.0,96,0.00,,---,0.00,VWS V14.00,2013-10-17 02:16:00,
2013-10-16 21:21:00,53.0,51.9,29.99,NNW,343,0.0,1.0,96,0.00,,---,0.00,VWS V14.00,2013-10-17 02:21:00,
2013-10-16 21:26:00,52.9,51.8,29.99,SW,232,0.0,1.0,96,0.00,,---,0.00,VWS V14.00,2013-10-17 02:26:00,
2013-10-16 21:32:00,52.8,51.7,29.99,SW,236,0.0,1.0,96,0.00,,---,0.00,VWS V14.00,2013-10-17 02:32:00,
2013-10-16 21:37:00,52.8,51.7,29.99,SW,235,0.0,1.0,96,0.00,,---,0.00,VWS V14.00,2013-10-17 02:37:00,
2013-10-16 21:42:00,52.5,51.4,29.99,SW,236,0.0,1.0,96,0.00,,---,0.00,VWS V14.00,2013-10-17 02:42:00,
2013-10-16 21:47:00,52.3,51.2,29.99,WSW,245,1.0,2.0,96,0.00,,---,0.00,VWS V14.00,2013-10-17 02:47:00,
2013-10-16 21:52:00,52.2,51.1,29.99,West,259,0.0,1.0,96,0.00,,---,0.00,VWS V14.00,2013-10-17 02:52:00,
2013-10-16 21:57:00,52.2,51.1,29.99,WNW,290,1.0,1.0,96,0.00,,---,0.00,VWS V14.00,2013-10-17 02:57:00,
2013-10-16 22:02:00,52.3,51.5,29.99,West,281,0.0,1.0,97,0.00,,---,0.00,VWS V14.00,2013-10-17 03:02:00,
2013-10-16 22:07:00,52.3,51.2,29.99,West,260,0.0,1.0,96,0.00,,---,0.00,VWS V14.00,2013-10-17 03:07:00,
2013-10-16 22:12:00,52.3,51.2,29.99,WSW,238,0.0,2.0,96,0.00,,---,0.00,VWS V14.00,2013-10-17 03:12:00,
2013-10-16 22:17:00,52.2,51.1,29.98,WSW,240,0.0,1.0,96,0.00,,---,0.00,VWS V14.00,2013-10-17 03:17:00,
2013-10-16 22:22:00,52.1,51.0,29.99,WSW,240,0.0,0.0,96,0.00,,---,0.00,VWS V14.00,2013-10-17 03:22:00,
2013-10-16 22:28:00,52.1,51.0,29.99,WSW,239,0.0,0.0,96,0.00,,---,0.00,VWS V14.00,2013-10-17 03:28:00,
2013-10-16 22:33:00,52.1,51.3,29.99,WSW,239,0.0,1.0,97,0.00,,---,0.00,VWS V14.00,2013-10-17 03:33:00,
2013-10-16 22:38:00,52.3,51.5,29.99,WNW,287,0.0,1.0,97,0.00,,---,0.00,VWS V14.00,2013-10-17 03:38:00,
2013-10-16 22:43:00,52.5,51.7,29.98,WNW,289,0.0,1.0,97,0.00,,---,0.00,VWS V14.00,2013-10-17 03:43:00,
2013-10-16 22:48:00,52.6,51.8,29.98,WNW,289,0.0,0.0,97,0.00,,---,0.00,VWS V14.00,2013-10-17 03:48:00,
2013-10-16 22:53:00,52.8,52.0,29.98,WNW,290,0.0,1.0,97,0.00,,---,0.00,VWS V14.00,2013-10-17 03:53:00,
2013-10-16 22:58:00,52.8,52.0,29.98,WNW,290,0.0,1.0,97,0.00,,---,0.00,VWS V14.00,2013-10-17 03:58:00,
2013-10-16 23:01:00,52.9,52.1,29.98,WNW,290,0.0,1.0,97,0.00,,---,0.00,VWS V14.00,2013-10-17 04:01:00,
2013-10-16 23:02:00,52.9,52.1,29.98,WNW,290,0.0,1.0,97,0.00,,---,0.00,VWS V14.00,2013-10-17 04:02:00,
2013-10-16 23:03:00,52.9,52.1,29.98,WNW,288,0.0,1.0,97,0.00,,---,0.00,VWS V14.00,2013-10-17 04:03:00,
2013-10-16 23:04:00,52.9,51.8,29.98,WNW,290,0.0,1.0,96,0.00,,---,0.00,VWS V14.00,2013-10-17 04:04:00,
2013-10-16 23:09:00,52.8,51.7,29.98,WNW,285,0.0,1.0,96,0.00,,---,0.00,VWS V14.00,2013-10-17 04:09:00,
2013-10-16 23:14:00,52.7,51.6,29.98,WNW,285,0.0,1.0,96,0.00,,---,0.00,VWS V14.00,2013-10-17 04:14:00,
2013-10-16 23:19:00,52.5,51.4,29.98,WNW,285,0.0,1.0,96,0.00,,---,0.00,VWS V14.00,2013-10-17 04:19:00,
2013-10-16 23:24:00,52.3,51.2,29.98,West,280,0.0,0.0,96,0.00,,---,0.00,VWS V14.00,2013-10-17 04:24:00,
2013-10-16 23:29:00,52.2,51.1,29.98,West,280,0.0,0.0,96,0.00,,---,0.00,VWS V14.00,2013-10-17 04:29:00,
2013-10-16 23:34:00,52.1,51.0,29.98,West,280,0.0,0.0,96,0.00,,---,0.00,VWS V14.00,2013-10-17 04:34:00,
2013-10-16 23:39:00,52.0,50.9,29.98,WNW,283,0.0,0.0,96,0.00,,---,0.00,VWS V14.00,2013-10-17 04:39:00,
2013-10-16 23:44:00,51.9,50.8,29.98,WNW,297,0.0,0.0,96,0.00,,---,0.00,VWS V14.00,2013-10-17 04:44:00,
2013-10-16 23:50:00,51.6,50.5,29.97,WNW,297,0.0,0.0,96,0.00,,---,0.00,VWS V14.00,2013-10-17 04:50:00,
2013-10-16 23:55:00,51.3,50.2,29.97,WNW,297,0.0,0.0,96,0.00,,---,0.00,VWS V14.00,2013-10-17 04:55:00,